Vorticity
19 16 21 20 22 21 2 12 11 18 -18 7 18 -4 5 12 2 25 -2 2 9 7 8 4 -6 1 7 15 14 11 19 4 8 3 53 28 27 19 22 6 -18 10 3 2
16 16 26 33 8 -2 -6 -6 19 17 20 8 11 22 12 13 14 -2 9 10 7 12 6 -0 19 12 1 -0 2 9 0 0 13 18 20 12 -2 -27 -21 -5 37 12 -6 7
16 25 14 -9 4 18 12 3 6 9 11 7 12 2 2 2 1 11 19 15 14 11 16 11 11 7 4 3 5 4 11 5 5 -12 -17 -4 -1 4 7 8 7 -21 -10 12
19 34 -6 15 9 5 -3 3 31 8 21 8 1 10 18 6 8 10 9 12 10 12 3 5 6 2 -1 -1 -3 6 15 8 11 7 8 4 1 6 10 6 7 6 -13 -10
3 -3 9 -4 6 15 -11 4 5 5 31 10 14 3 11 11 8 20 11 18 11 8 4 -0 10 8 5 13 3 9 12 13 11 3 8 -2 15 11 12 5 20 5 4 2
8 10 12 7 10 2 13 -4 20 4 18 5 4 7 6 1 13 9 16 7 2 5 8 7 6 7 11 4 8 5 8 11 3 25 7 17 43 50 37 34 45 32 11 13
9 5 -0 16 10 -1 8 14 15 -1 10 21 13 6 13 8 1 7 7 6 7 9 7 18 21 28 28 28 26 24 15 9 10 5 15 23 25 -15 -13 52 21 28 12 15
16 5 13 -7 16 15 7 16 11 10 8 9 17 13 7 11 14 11 9 12 9 6 15 17 6 11 8 9 17 6 14 27 -5 -5 19 -25 35 16 -5 32 18 12 13 29
14 -9 12 18 10 -0 5 14 9 24 6 3 -1 -2 4 16 9 8 12 7 6 14 17 12 10 9 10 5 33 19 27 24 14 17 4 5 -9 -7 -2 45 3 23 14 11
16 15 11 10 9 13 13 14 9 11 -3 5 3 12 28 9 6 11 8 7 13 10 13 11 11 7 13 9 10 6 16 25 3 2 -6 10 4 12 58 1 10 19 10 10
15 6 7 11 10 11 17 11 9 11 -10 16 7 14 11 10 6 9 19 1 12 4 14 8 11 6 8 9 25 27 22 9 21 20 11 15 -4 31 13 17 8 21 15 13
8 4 6 9 10 11 11 13 14 8 2 23 9 11 10 6 7 5 10 20 13 13 13 13 9 13 9 12 10 14 -2 34 22 14 13 18 14 14 8 8 19 14 16 12
7 5 9 10 10 11 14 20 17 15 3 23 10 6 7 6 7 6 5 6 9 12 10 7 11 11 3 19 -14 25 3 17 9 13 2 1 19 12 14 12 14 12 8 7
8 0 10 9 10 10 13 13 16 3 21 24 7 8 4 5 4 4 7 4 3 4 13 11 7 13 3 6 4 4 15 16 1 2 3 5 12 17 13 10 8 7 8 9
4 7 11 10 10 9 10 12 13 10 -18 23 5 4 6 4 3 3 7 2 4 10 2 7 7 12 5 9 10 -3 8 13 22 17 17 9 12 7 6 8 8 7 7 7
9 5 10 12 12 7 9 12 10 8 2 14 -4 7 9 11 9 10 8 7 13 11 15 5 13 11 7 8 7 2 6 17 17 15 14 12 10 8 9 10 10 8 6 7
17 12 11 9 7 7 3 9 20 8 3 5 12 1 13 11 8 7 8 9 15 12 13 12 8 13 8 9 2 8 4 10 16 7 9 11 8 10 10 7 6 6 6 6
15 9 11 9 9 10 6 11 20 12 10 0 7 18 10 3 5 8 8 9 10 15 11 5 9 9 2 7 19 11 -0 4 16 21 15 9 9 7 5 3 5 6 7 7
18 14 12 10 10 9 10 13 15 18 5 2 12 11 9 15 8 7 12 13 14 10 12 10 12 16 7 6 9 9 -2 5 11 14 10 9 7 7 6 5 5 11 11 10
12 8 11 11 11 8 8 12 11 14 11 6 22 10 8 5 8 13 10 14 12 12 23 20 11 7 8 0 1 4 7 17 8 10 15 10 6 4 5 11 14 10 8 7
11 12 2 17 11 7 -2 16 3 14 13 15 15 6 5 9 7 7 7 10 11 10 24 -0 10 20 25 17 16 16 14 14 10 12 10 8 8 8 11 9 9 11 10 10
14 9 22 15 -9 11 13 7 11 15 12 13 8 16 25 15 9 6 12 15 16 9 33 -2 13 23 14 12 13 12 13 12 17 14 10 8 10 12 10 11 10 10 12 12
14 18 -23 8 8 11 11 12 16 14 17 8 10 19 23 7 6 8 9 16 5 13 21 6 13 18 14 12 12 15 14 13 14 12 11 11 11 10 9 11 11 13 14 11
-8 -7 10 5 16 18 17 13 10 12 13 14 5 21 0 2 10 8 11 10 12 12 10 11 20 10 12 14 15 12 11 10 8 9 11 11 11 12 14 16 14 9 8 8
-9 10 10 9 19 18 6 8 13 10 7 13 10 5 0 16 1 11 10 15 12 10 24 17 13 13 15 13 9 11 7 7 9 10 13 13 14 14 9 8 6 7 6 5
-0 11 11 13 9 16 14 15 9 12 4 9 12 17 18 10 9 12 8 12 7 9 15 12 11 13 15 12 10 7 6 12 14 13 14 10 7 6 6 6 7 7 7 8
5 16 11 15 12 8 6 4 15 10 12 9 -3 10 16 14 9 13 12 10 3 11 15 16 17 15 13 11 9 11 14 12 14 11 7 6 5 6 7 8 8 7 7 9
Height
2934 2934 2935 2937 2940 2943 2949 2952 2958 2962 2966 2972 2974 2977 2979 2978 2980 2983 2985 2986 2987 2988 2991 2994 2995 2997 2999 3000 3001 3002 3003 3002 3002 3004 3006 3006 3007 3007 3008 3011 3006 3004 3003 2997
2930 2932 2934 2937 2941 2946 2951 2955 2958 2960 2964 2969 2973 2977 2978 2980 2979 2981 2983 2985 2986 2988 2990 2993 2994 2995 2997 2998 2999 3000 3000 3001 3001 3002 3005 3004 3004 3005 3007 3008 3005 3000 3001 2993
2927 2931 2934 2938 2942 2946 2951 2955 2957 2961 2965 2968 2971 2974 2976 2978 2979 2981 2982 2983 2985 2986 2987 2990 2992 2994 2995 2996 2997 2998 3000 3000 3000 3001 3001 3002 3001 3001 3003 3006 3002 2998 2993 2990
2926 2929 2935 2939 2943 2947 2951 2954 2956 2960 2963 2967 2970 2973 2975 2976 2978 2979 2981 2982 2983 2984 2986 2988 2990 2992 2994 2996 2997 2997 2999 2998 2997 2996 2996 2996 2996 2995 2995 2994 2993 2992 2988 2986
2928 2932 2936 2939 2943 2947 2951 2953 2956 2961 2963 2966 2969 2971 2974 2974 2975 2977 2979 2980 2981 2983 2985 2987 2988 2991 2992 2993 2994 2994 2995 2995 2994 2992 2993 2993 2989 2986 2983 2981 2981 2981 2983 2980
2928 2932 2935 2939 2944 2948 2951 2954 2957 2960 2962 2965 2968 2969 2971 2973 2975 2977 2979 2980 2981 2982 2983 2984 2985 2986 2987 2988 2988 2989 2991 2993 2994 2990 2990 2989 2985 2980 2976 2969 2970 2973 2974 2976
2928 2933 2936 2939 2945 2947 2951 2954 2957 2959 2962 2964 2966 2968 2971 2973 2975 2977 2978 2979 2980 2981 2981 2981 2981 2981 2982 2983 2985 2986 2987 2989 2991 2987 2989 2988 2978 2976 2970 2966 2966 2967 2967 2968
2928 2932 2935 2940 2943 2946 2951 2954 2957 2959 2960 2963 2967 2970 2972 2974 2976 2976 2977 2978 2979 2980 2979 2979 2980 2981 2983 2983 2983 2983 2983 2985 2986 2987 2985 2978 2975 2972 2969 2965 2966 2963 2963 2963
2928 2932 2935 2939 2943 2947 2950 2954 2957 2959 2962 2966 2968 2970 2972 2973 2974 2976 2977 2978 2978 2979 2979 2979 2981 2982 2983 2982 2980 2980 2979 2980 2982 2984 2983 2978 2971 2968 2966 2963 2964 2961 2960 2961
2927 2931 2935 2940 2943 2946 2949 2952 2956 2960 2962 2964 2967 2969 2970 2973 2974 2976 2977 2978 2979 2979 2980 2980 2981 2982 2982 2982 2980 2979 2978 2979 2978 2980 2980 2974 2969 2966 2961 2962 2969 2961 2961 2963
2927 2931 2936 2939 2942 2945 2948 2951 2955 2960 2962 2964 2967 2970 2972 2974 2976 2977 2977 2979 2979 2980 2980 2981 2982 2982 2982 2981 2979 2978 2977 2977 2976 2976 2976 2974 2969 2966 2963 2965 2963 2963 2964 2963
2927 2931 2934 2938 2942 2945 2948 2951 2954 2958 2962 2965 2968 2971 2973 2975 2976 2977 2977 2979 2979 2980 2981 2982 2982 2982 2982 2980 2980 2978 2978 2977 2975 2975 2975 2974 2971 2968 2966 2966 2965 2965 2966 2965
2927 2931 2935 2939 2943 2946 2948 2951 2954 2958 2962 2965 2968 2971 2974 2975 2976 2978 2979 2979 2980 2980 2981 2981 2982 2982 2981 2980 2980 2978 2977 2976 2976 2977 2975 2974 2972 2970 2969 2968 2969 2969 2968 2967
2929 2932 2936 2940 2943 2946 2948 2950 2954 2959 2962 2964 2969 2971 2973 2975 2977 2977 2978 2979 2980 2981 2981 2981 2981 2981 2981 2980 2980 2979 2978 2977 2976 2977 2976 2974 2973 2972 2971 2971 2971 2970 2969 2969
2928 2933 2937 2940 2944 2946 2948 2951 2955 2958 2964 2965 2968 2971 2973 2974 2976 2977 2978 2979 2979 2980 2980 2980 2980 2980 2981 2980 2979 2979 2978 2976 2976 2975 2976 2976 2975 2974 2974 2973 2973 2973 2972 2972
2928 2933 2937 2940 2944 2946 2949 2952 2957 2959 2962 2965 2968 2971 2972 2974 2975 2976 2976 2977 2977 2978 2978 2979 2979 2979 2981 2980 2979 2979 2977 2975 2975 2975 2976 2976 2976 2976 2976 2976 2975 2975 2973 2973
2926 2932 2936 2939 2943 2946 2950 2954 2956 2959 2962 2965 2967 2969 2971 2972 2973 2974 2974 2974 2975 2976 2976 2976 2977 2977 2978 2978 2978 2978 2977 2976 2976 2975 2975 2976 2976 2976 2976 2976 2976 2975 2973 2972
2926 2931 2935 2939 2942 2946 2950 2952 2955 2958 2961 2964 2966 2967 2970 2971 2972 2972 2972 2972 2972 2973 2973 2974 2975 2975 2977 2976 2976 2976 2976 2975 2975 2975 2975 2975 2976 2977 2977 2977 2976 2976 2974 2973
2927 2931 2935 2938 2942 2946 2949 2952 2954 2956 2962 2962 2964 2965 2968 2969 2970 2971 2971 2971 2970 2971 2970 2972 2973 2973 2973 2974 2975 2975 2975 2975 2975 2974 2974 2975 2975 2976 2977 2977 2976 2976 2975 2974
2928 2932 2936 2939 2943 2946 2950 2953 2955 2956 2958 2961 2962 2964 2966 2969 2969 2969 2971 2969 2969 2968 2969 2969 2970 2970 2971 2971 2972 2973 2973 2973 2973 2974 2974 2974 2975 2975 2976 2976 2976 2975 2973 2972
2929 2932 2936 2940 2944 2948 2951 2952 2955 2956 2958 2959 2961 2963 2964 2967 2968 2968 2969 2968 2967 2967 2968 2968 2968 2966 2967 2968 2969 2970 2971 2969 2971 2972 2973 2973 2974 2975 2975 2975 2975 2975 2974 2972
2931 2935 2939 2942 2946 2949 2951 2952 2954 2955 2957 2958 2959 2961 2962 2965 2966 2968 2968 2966 2965 2963 2965 2966 2965 2964 2965 2966 2968 2968 2967 2968 2969 2970 2972 2973 2973 2973 2974 2974 2973 2972 2972 2972
2934 2938 2941 2944 2946 2947 2948 2950 2952 2953 2955 2958 2959 2960 2961 2965 2966 2966 2966 2963 2963 2963 2962 2964 2963 2963 2963 2964 2965 2966 2967 2968 2969 2970 2970 2971 2972 2972 2972 2972 2972 2972 2971 2970
2936 2939 2942 2943 2944 2946 2947 2949 2951 2954 2955 2957 2959 2960 2962 2964 2965 2965 2964 2964 2963 2962 2962 2961 2961 2961 2962 2963 2964 2965 2966 2967 2968 2969 2970 2970 2971 2971 2971 2971 2971 2971 2970 2970
2938 2940 2942 2943 2944 2945 2948 2950 2952 2954 2955 2957 2959 2961 2962 2963 2964 2964 2963 2963 2961 2960 2960 2960 2960 2960 2961 2962 2963 2965 2966 2967 2967 2968 2968 2969 2970 2970 2971 2971 2970 2970 2969 2968
2938 2940 2941 2943 2944 2946 2948 2949 2952 2954 2955 2957 2959 2960 2961 2962 2963 2963 2962 2962 2961 2962 2960 2960 2960 2960 2961 2962 2963 2964 2965 2965 2966 2967 2967 2968 2969 2970 2970 2970 2969 2968 2967 2965
2938 2940 2941 2943 2945 2946 2948 2949 2951 2953 2955 2956 2958 2959 2960 2961 2961 2961 2961 2961 2961 2960 2960 2960 2960 2961 2961 2962 2962 2963 2964 2964 2965 2966 2967 2968 2969 2969 2969 2968 2967 2965 2964 2961